Location: Brompton
(51.4000°N, 0.5333°E)
Time: 16:50:56
(UTC+00:00)

Cosmos 1666 - Pass Details

Date: 11 May 2021
Orbit: 496 x 518 km, 82.5° (Epoch: 24 June)

Event Time Altitude Azimuth Distance (km) Brightness Sun altitude
Rises 20:51:57 0° 353° (N) 2,607 7.2 -9.9°
Reaches altitude 10° 20:54:08 10° 359° (N) 1,715 6.1 -10.1°
Maximum altitude 20:57:47 48° 75° (ENE) 658 3.0 -10.5°
Enters shadow 21:00:32 16° 147° (SSE) 1,365 4.2 -10.8°
